Home   Weather   Garden Grove   Past weeks

Flag for USA Past Weather in Garden Grove, California, USA — Yesterday and Last 2 Weeks

Now
66 °F

Sunny.


Feels Like: 66 °F
Forecast: 43 / 66 °F
Wind: 7 mph from Northwest

Location: Fullerton Municipal Airport

Current Time: Jan 16, 2017 at 5:06:51 pm

Latest Report: Jan 16, 2017 at 3:53 pm


Visibility: 10 mi

Pressure: 30.00 "Hg

Humidity: 56%

Dew Point: 50 °F

Location of Garden GroveLocation

Past Weather in Garden Grove — Graph

°F

Garden Grove Temperature Yesterday

Maximum temperature yesterday: 63 °F (at 11:25 am)
Minimum temperature yesterday: 48 °F (at 6:53 am)
Average temperature yesterday: 56 °F

High & Low Weather Summary for the Past Weeks

 TemperatureHumidityPressure
High77 °F (Jan 8, 1:53 pm)100% (Jan 5, 1:34 am)30.20 "Hg (Jan 5, 1:34 am)
Low44 °F (Jan 4, 4:53 am)29% (Jan 7, 2:53 pm)29.91 "Hg (Jan 12, 5:41 am)
Average57 °F82%30.05 "Hg
* Reported Jan 1 3:53 pm — Jan 16 3:53 pm, Garden Grove, Weather by CustomWeather, © 2017

Note: Actual official high and low records may vary slightly from our data, if they occured in-between our weather recording intervals... More about our weather records

Advertising

Garden Grove Weather History for the Previous 24 Hours

Scroll right to see more
 ConditionsComfort  
Time TempWeatherWind HumidityBarometerVisibility
3:53 pm
Mon, Jan 16
66 °FSunny.7 mph56%30.00 "Hg10 mi
2:53 pm68 °FSunny.3 mph45%29.99 "Hg10 mi
1:53 pm67 °FSunny.5 mph49%30.00 "Hg10 mi
12:53 pm65 °FPassing clouds.3 mph54%30.01 "Hg10 mi
11:53 am64 °FPassing clouds.No wind56%30.04 "Hg10 mi
10:53 am63 °FScattered clouds.3 mph60%30.08 "Hg10 mi
9:53 am62 °FPartly sunny.No wind67%30.09 "Hg10 mi
9:00 am59 °FPassing clouds.No wind78%30.09 "Hg10 mi
7:53 am54 °FPartly sunny.No wind90%30.08 "Hg10 mi
6:53 am54 °FOvercast.No wind90%30.06 "Hg10 mi
5:53 am54 °FOvercast.No wind90%30.04 "Hg10 mi
4:53 am53 °FOvercast.No wind93%30.03 "Hg10 mi
3:53 am52 °FPassing clouds.No wind93%30.03 "Hg10 mi
3:25 am52 °FPassing clouds.No wind93%30.03 "Hg10 mi
2:53 am53 °FPassing clouds.No wind93%30.04 "Hg10 mi
2:05 am53 °FPassing clouds.No wind93%30.05 "Hg10 mi
12:53 am54 °FOvercast.No wind93%30.05 "Hg10 mi
12:23 am53 °FPassing clouds.No wind93%30.06 "Hg10 mi
11:53 pm
Sun, Jan 15
54 °FPassing clouds.No wind90%30.06 "Hg10 mi
10:53 pm54 °FOvercast.No wind90%30.06 "Hg10 mi
9:53 pm55 °FPassing clouds.No wind90%30.06 "Hg10 mi
8:53 pm54 °FPassing clouds.No wind90%30.06 "Hg10 mi
7:53 pm57 °FPassing clouds.No wind83%30.05 "Hg10 mi
6:53 pm58 °FClear.3 mph81%30.04 "Hg10 mi
5:53 pm59 °FOvercast.No wind81%30.03 "Hg10 mi
Weather by CustomWeather, © 2017

See weather overviewHow to use our weather pages